TimeEST,TemperatureF,Dew PointF,Humidity,Sea Level PressureIn,VisibilityMPH,Wind Direction,Wind SpeedMPH,Gust SpeedMPH,PrecipitationIn,Events,Conditions,WindDirDegrees,DateUTC
12:15 AM,35.6,33.8,93,29.98,4.0,NW,4.6,-,N/A,,Overcast,310,2013-02-16 05:15:00
12:35 AM,35.6,33.8,93,29.98,3.0,NW,3.5,-,0.01,,Overcast,310,2013-02-16 05:35:00
12:55 AM,35.6,33.8,93,29.97,4.0,Calm,Calm,-,0.01,,Overcast,0,2013-02-16 05:55:00
1:15 AM,35.6,33.8,93,29.97,4.0,NW,3.5,-,0.01,,Overcast,320,2013-02-16 06:15:00
1:35 AM,35.6,33.8,93,29.97,4.0,WNW,3.5,-,0.01,,Overcast,290,2013-02-16 06:35:00
1:55 AM,35.6,33.8,93,29.97,4.0,WNW,4.6,-,0.01,,Overcast,290,2013-02-16 06:55:00
2:15 AM,35.6,33.8,93,29.96,5.0,WNW,3.5,-,N/A,,Overcast,290,2013-02-16 07:15:00
2:35 AM,35.6,33.8,93,29.95,5.0,Calm,Calm,-,N/A,,Overcast,0,2013-02-16 07:35:00
2:55 AM,33.8,33.8,100,29.94,4.0,Calm,Calm,-,N/A,,Overcast,0,2013-02-16 07:55:00
3:15 AM,35.6,33.8,93,29.94,4.0,Calm,Calm,-,N/A,,Overcast,0,2013-02-16 08:15:00
3:35 AM,35.6,33.8,93,29.93,5.0,Calm,Calm,-,N/A,,Overcast,0,2013-02-16 08:35:00
3:55 AM,35.6,33.8,93,29.94,5.0,Calm,Calm,-,N/A,,Overcast,0,2013-02-16 08:55:00
4:15 AM,35.6,33.8,93,29.94,7.0,Calm,Calm,-,N/A,,Overcast,0,2013-02-16 09:15:00
4:35 AM,35.6,33.8,93,29.95,5.0,NW,3.5,-,N/A,,Overcast,310,2013-02-16 09:35:00
4:55 AM,35.6,33.8,93,29.94,7.0,Calm,Calm,-,N/A,,Overcast,0,2013-02-16 09:55:00
5:15 AM,35.6,33.8,93,29.95,7.0,WNW,3.5,-,N/A,,Overcast,290,2013-02-16 10:15:00
5:35 AM,35.6,33.8,93,29.94,7.0,Calm,Calm,-,N/A,,Mostly Cloudy,0,2013-02-16 10:35:00
5:55 AM,35.6,33.8,93,29.93,7.0,Calm,Calm,-,N/A,,Scattered Clouds,0,2013-02-16 10:55:00
6:35 AM,35.6,33.8,93,29.94,5.0,Calm,Calm,-,N/A,,Mostly Cloudy,0,2013-02-16 11:35:00
6:55 AM,35.6,33.8,93,29.94,7.0,North,3.5,-,N/A,,Scattered Clouds,360,2013-02-16 11:55:00
7:15 AM,35.6,32.0,87,29.94,10.0,North,5.8,-,N/A,,Clear,360,2013-02-16 12:15:00
7:35 AM,35.6,32.0,87,29.95,10.0,Calm,Calm,-,N/A,,Clear,0,2013-02-16 12:35:00
7:55 AM,33.8,32.0,93,29.96,10.0,North,5.8,-,N/A,,Clear,360,2013-02-16 12:55:00
8:15 AM,33.8,28.4,81,29.96,10.0,North,5.8,-,N/A,,Clear,360,2013-02-16 13:15:00
8:35 AM,33.8,28.4,81,29.96,10.0,NNE,6.9,-,N/A,,Clear,20,2013-02-16 13:35:00
8:55 AM,35.6,30.2,81,29.95,10.0,NNE,5.8,-,N/A,,Clear,30,2013-02-16 13:55:00
9:15 AM,33.8,28.4,81,29.95,10.0,NNE,6.9,-,N/A,,Clear,20,2013-02-16 14:15:00
9:35 AM,35.6,28.4,75,29.95,10.0,NE,5.8,-,N/A,,Clear,40,2013-02-16 14:35:00
9:55 AM,35.6,28.4,75,29.95,10.0,North,6.9,-,N/A,,Clear,360,2013-02-16 14:55:00
10:15 AM,35.6,26.6,70,29.94,10.0,NNE,6.9,-,N/A,,Clear,20,2013-02-16 15:15:00
10:35 AM,35.6,26.6,70,29.94,10.0,North,6.9,-,N/A,,Clear,10,2013-02-16 15:35:00
1:15 PM,37.4,28.4,70,29.88,10.0,NNW,5.8,-,N/A,,Clear,330,2013-02-16 18:15:00
1:35 PM,37.4,28.4,70,29.88,10.0,NNE,5.8,-,N/A,,Scattered Clouds,20,2013-02-16 18:35:00
1:55 PM,37.4,28.4,70,29.86,10.0,North,6.9,-,N/A,,Clear,10,2013-02-16 18:55:00
2:15 PM,37.4,28.4,70,29.86,10.0,Calm,Calm,-,N/A,,Scattered Clouds,0,2013-02-16 19:15:00
2:35 PM,37.4,28.4,70,29.86,10.0,North,3.5,-,N/A,,Mostly Cloudy,360,2013-02-16 19:35:00
2:55 PM,37.4,26.6,65,29.87,10.0,NNW,5.8,-,N/A,,Mostly Cloudy,340,2013-02-16 19:55:00
3:15 PM,37.4,26.6,65,29.86,10.0,NNW,6.9,-,N/A,,Scattered Clouds,340,2013-02-16 20:15:00
3:35 PM,35.6,26.6,70,29.86,10.0,North,3.5,-,N/A,,Scattered Clouds,10,2013-02-16 20:35:00
3:55 PM,35.6,28.4,75,29.85,10.0,NNW,4.6,-,N/A,,Mostly Cloudy,340,2013-02-16 20:55:00
4:15 PM,35.6,26.6,70,29.85,10.0,North,8.1,-,N/A,,Scattered Clouds,10,2013-02-16 21:15:00
4:35 PM,35.6,26.6,70,29.85,10.0,NNE,4.6,-,N/A,,Scattered Clouds,20,2013-02-16 21:35:00
4:55 PM,35.6,24.8,65,29.85,10.0,North,8.1,-,N/A,,Clear,10,2013-02-16 21:55:00
5:15 PM,35.6,23.0,60,29.85,10.0,NNW,8.1,-,N/A,,Clear,330,2013-02-16 22:15:00
5:35 PM,33.8,23.0,65,29.85,10.0,NNW,5.8,-,N/A,,Clear,340,2013-02-16 22:35:00
5:55 PM,33.8,23.0,65,29.86,10.0,NNW,4.6,-,N/A,,Clear,330,2013-02-16 22:55:00
6:15 PM,33.8,23.0,65,29.85,10.0,NNW,5.8,-,N/A,,Clear,340,2013-02-16 23:15:00
6:35 PM,33.8,23.0,65,29.85,10.0,North,5.8,-,N/A,,Clear,350,2013-02-16 23:35:00
6:55 PM,33.8,21.2,60,29.84,10.0,NNW,6.9,-,N/A,,Clear,340,2013-02-16 23:55:00
7:15 PM,33.8,21.2,60,29.83,10.0,North,5.8,-,N/A,,Clear,360,2013-02-17 00:15:00
7:35 PM,33.8,21.2,60,29.84,10.0,NNW,5.8,-,N/A,,Clear,330,2013-02-17 00:35:00
7:55 PM,33.8,21.2,60,29.83,10.0,North,6.9,-,N/A,,Clear,350,2013-02-17 00:55:00
8:15 PM,33.8,19.4,56,29.82,10.0,North,10.4,-,N/A,,Clear,350,2013-02-17 01:15:00
8:35 PM,33.8,19.4,56,29.83,10.0,North,10.4,-,N/A,,Clear,350,2013-02-17 01:35:00
8:55 PM,32.0,17.6,55,29.83,10.0,North,5.8,-,N/A,,Clear,360,2013-02-17 01:55:00
9:15 PM,32.0,17.6,55,29.83,10.0,North,8.1,-,N/A,,Clear,350,2013-02-17 02:15:00
9:35 PM,32.0,17.6,55,29.82,10.0,North,3.5,-,N/A,,Scattered Clouds,350,2013-02-17 02:35:00
9:55 PM,32.0,17.6,55,29.80,10.0,North,8.1,-,N/A,,Clear,350,2013-02-17 02:55:00
10:15 PM,32.0,17.6,55,29.81,10.0,North,6.9,17.3,N/A,,Clear,360,2013-02-17 03:15:00
10:35 PM,32.0,17.6,55,29.80,10.0,NNW,6.9,-,N/A,,Clear,340,2013-02-17 03:35:00
10:55 PM,32.0,17.6,55,29.79,10.0,North,6.9,16.1,N/A,,Clear,350,2013-02-17 03:55:00
11:15 PM,32.0,17.6,55,29.78,10.0,NNW,11.5,17.3,N/A,,Clear,340,2013-02-17 04:15:00
11:35 PM,32.0,14.0,48,29.77,10.0,NNW,12.7,19.6,N/A,,Clear,340,2013-02-17 04:35:00
11:55 PM,32.0,14.0,48,29.77,10.0,NNW,6.9,-,N/A,,Clear,340,2013-02-17 04:55:00